STARLINK-4269, 52992

Orbit data source: Space-Track

STARLINK-4269, 52992 is a payload satellite owned by SpaceX/Seattle (US) in LEO that was launched on Thu, 07 Jul 2022 UTC via an FALCON 9 launch vehicle from the Air Force Eastern Test Range (AFETR). Payload-class satellites include a variety of spacecraft equipped with specific instruments for various scientific and technological missions. These include communications satellites like Starlink; space stations such as the ISS; scientific satellites like the Hubble; Earth observation satellites from companies like Planet Labs, Umbra, and HawkEye 360; GPS; miniature CubeSats for education and research; and military/defense satellites.

Loading next visibility...
Identifier
52992, 2022-076G
Orbit
LEO
Country
Flag of USUS
Related business
Manufacturer
SpaceX/Seattle
Mission
Operational Commercial Communications
Bus & Motor
STARLINK, Unknown motor
Mass
297 kg wet, ~275 kg dry
Launch date (UTC)
2022-07-07 (4 years ago)
Launch vehicle
FALCON 9
Launch site
Air Force Eastern Test Range (AFETR)
Object type
Payload
Rocket body
Debris
Shape & HBR
Box + 1 Pan, 10.1 m
Radar Cross Section
13.562 m², Large (>1 m²)

Expand to show TLE details & history
Last TLE update: 3 days ago

TLE from 3 days ago
0 STARLINK-4269
1 52992U 22076G   26170.81321502 -.00000913  00000-0 -39268-4 0  9999
2 52992  53.1609   5.5661 0001354  95.0271 265.0875 15.08834069218124
Epoch: 2026-06-19T19:31Z
TLE epoch observation values (Epoch: 2026-06-19T19:31:01.777Z)
Latitude
-0.00003°
Longitude
164.77186°
Altitude
540.733 km
Speed
7.593 km/s
True Right ascension
00h 22m 15s
True Declination
0° 00' 00"
Sunlit
Object was in daylight at epoch
Visualization orbit readout
Latitude
Unknown
Longitude
Unknown
Altitude
Unknown
Speed
Unknown
Apparent Right ascension
Unknown
Apparent Declination
Unknown
Sunlit
N/A
Visualization observer readout
Local Sidereal Time
23:20:43
Azimuth
Unknown
Elevation
Unknown
Doppler factor
Unknown
Orbital elements
Apogee altitude
540.952 km
Perigee altitude
539.079 km
Semi-major axis
6,918.152 km
Eccentricity
0.00014
Inclination
53.1609°
RAAN
5.5661°
Arg. of periapsis
95.0271°
True anomaly
265.07204°
Mean anomaly
265.0875°
Eccentric anomaly
265.07977°
Mean motion
3.77188 °/min
Orbital period
95.44 mins
BSTAR
-0.000039268
Loading maneuver chart data...
Computing Atmospheric mass density...
Loading historical data...
Loading historical data...
Loading historical data...
Loading historical data...
Loading historical data...
Loading historical data...
Loading historical data...

Documentation

Showing up to 5 results
|